Location: Dietingen
(48.2048°N, 8.6485°E)
Time: 01:45:44
(UTC+00:00)

Daily predictions for brighter satellites

Satellite Brightness Start Highest point End
(mag) Time Altitude Azimuth Time Altitude Azimuth Time Altitude Azimuth
Cosmos 2227 Rocket 2.2 00:05:20 30° SSW 00:08:18 89° ESE 00:14:01 10° NNE
Cosmos 1892 3.3 00:09:05 34° WSW 00:09:57 41° WNW 00:13:19 10° N
Cosmos 990 Rocket 4.0 00:08:24 33° S 00:10:43 73° ESE 00:15:51 10° NNE
IDEFIX/ARIANE 42P 4.4 00:07:02 10° NE 00:11:01 22° E 00:14:28 12° SE
Cosmos 332 Rocket 3.9 00:09:47 30° SW 00:12:09 69° WNW 00:17:03 10° NNE
SL-12 R/B(2) 4.4 00:09:27 25° SSW 00:14:43 72° SE 00:24:26 10° NE
CENTAUR R/B 2.5 00:12:18 29° SSW 00:15:21 69° SE 00:22:20 10° NE
CZ-2C R/B 4.5 00:11:53 10° ESE 00:16:15 27° ENE 00:20:42 10° N
CZ-2D R/B 4.2 00:14:49 10° NE 00:18:28 18° E 00:22:05 10° SE
GEOS 3 Rocket 3.6 00:13:40 10° NE 00:18:52 82° NW 00:22:02 24° SW
Meteor 1-21 Rocket 4.3 00:18:17 28° S 00:21:25 78° E 00:27:08 10° NNE
H-2A R/B 3.1 00:18:07 10° N 00:22:02 36° WNW 00:24:02 22° WSW
Cosmos 1975 Rocket 3.5 00:21:39 29° SSE 00:23:36 54° E 00:27:54 10° NNE
Cosmos 1538 Rocket 3.9 00:19:10 10° NNW 00:24:21 73° WSW 00:27:12 27° S
SL-4 R/B 2.9 00:23:12 10° W 00:26:25 30° SW 00:26:25 30° SW
Cosmos 2074 Rocket 4.4 00:24:31 24° SW 00:28:07 53° WNW 00:34:13 10° N
Cosmos 2297 Rocket 3.2 00:24:23 15° WSW 00:28:44 40° NW 00:34:03 10° NNE
Cosmos 2219 3.2 00:27:36 29° SSW 00:30:35 76° ESE 00:36:14 10° NNE
Cosmos 2341 Rocket 4.4 00:28:16 21° SSE 00:32:21 58° E 00:38:26 10° NNE
Cosmos 2084 Rocket 4.0 00:29:51 20° WSW 00:32:31 51° NW 00:36:34 10° NE
Cosmos 1455 Rocket 3.0 00:31:05 10° NNW 00:35:32 75° W 00:37:36 31° S
Aureole 1 Rocket 2.7 00:38:34 38° SSW 00:39:52 80° ESE 00:44:14 10° NNE
Cosmos 1825 3.9 00:42:47 16° W 00:43:58 19° WNW 00:46:30 10° NNW
Cosmos 372 Rocket 4.3 00:42:35 25° S 00:45:29 59° ESE 00:50:37 10° NNE
ADEOS II 4.0 00:42:12 10° NE 00:46:09 21° E 00:50:05 10° SE
Meteor 2-1 Rocket 4.3 00:43:02 10° NNW 00:49:00 89° E 00:53:19 19° S
Cosmos 923 Rocket 4.0 00:47:09 10° NNW 00:52:27 89° ENE 00:56:51 15° SSE
Cosmos 1025 Rocket 3.8 00:50:34 25° SW 00:52:35 40° WNW 00:56:41 10° N
CRYOSAT 2 4.4 00:50:28 10° N 00:55:20 68° W 00:58:05 26° SSW
BREEZE-M DEB (TANK) 2.3 00:54:06 10° WNW 00:58:39 38° SW 00:58:59 37° SSW
Resurs 1-4 Rocket 3.0 00:54:08 10° NNE 00:59:06 41° E 01:03:09 15° SSE
NOSS 3-2 (A) 3.2 00:56:57 24° SW 01:00:17 87° SE 01:06:34 10° NE
Cosmos 1937 Rocket 3.6 00:58:06 24° S 01:01:19 69° ESE 01:06:33 10° NNE
Cosmos 1606 2.4 00:58:36 10° N 01:02:12 89° NE 01:04:04 27° S
Cosmos 2263 Rocket 2.1 00:58:49 24° SSW 01:02:18 88° NW 01:07:54 10° NNE
CZ-4C R/B 3.8 00:59:38 10° W 01:04:01 30° NNW 01:09:24 10° NE
Cosmos 1898 Rocket 3.4 01:01:19 25° SSW 01:04:26 85° WNW 01:09:39 10° NNE
NOSS 3-2 (C) 3.7 01:03:08 22° S 01:06:17 48° ESE 01:12:07 10° NE
Orbus 7S? 3.0 01:04:40 10° NW 01:07:23 77° NE 01:11:27 10° ESE
MOZ.5/SAFIR/RUBIN 5/SL-8 3.8 01:05:48 22° S 01:08:46 67° WSW 01:13:24 10° NNW
Cosmos 2218 Rocket 4.0 01:04:28 20° S 01:09:01 83° E 01:15:14 10° N
Helios 1A Rocket 3.6 01:12:04 26° SW 01:13:23 33° W 01:16:51 10° NNW
BlueWalker 3 3.4 01:10:56 10° WNW 01:14:26 37° N 01:17:57 10° ENE
Cosmos 2366 rocket 4.0 01:11:40 20° S 01:16:16 85° W 01:22:33 10° N
Cosmos 1461 2.8 01:14:31 26° SSW 01:16:35 67° SE 01:20:27 10° NE
Iridium 921 4.5 01:14:40 24° S 01:16:35 75° E 01:20:03 10° N
Cosmos 1844 Rocket 4.0 01:17:43 11° SSE 01:22:21 31° ESE 01:27:11 10° NE
BREEZE-M DEB (TANK) 2.7 01:25:57 25° S 01:25:57 25° S 01:28:06 10° SE
MSX 3.9 01:22:57 10° NNE 01:28:43 80° ESE 01:33:23 16° S
Cosmos 1680 Rocket 3.6 01:29:37 10° NNW 01:34:43 56° WSW 01:39:25 12° S
ALOS 3.8 01:31:05 10° NNE 01:35:09 30° E 01:39:12 10° SSE
Cosmos 1818 3.7 01:30:39 10° NW 01:35:57 52° WSW 01:41:12 10° SSE
Cosmos 2112 Rocket 4.0 01:31:44 10° NNW 01:36:52 63° WSW 01:41:58 10° S
SL-16 R/B 3.4 01:33:48 10° NW 01:38:18 24° WSW 01:41:09 17° SW
SL-16 R/B 3.1 01:32:15 10° SSE 01:38:24 63° ENE 01:44:33 10° N
Cosmos 1603 3.8 01:37:45 10° NNW 01:43:34 85° ENE 01:49:18 10° SSE
Cosmos 1869 4.2 01:41:37 10° NNW 01:44:49 28° W 01:46:40 18° SW
Cosmos 1544 Rocket 4.3 01:42:56 10° NNW 01:47:01 36° W 01:49:57 17° SSW
USA 234 4.1 01:41:08 10° E 01:47:28 55° NNE 01:53:50 10° NW
COSMOS 2441 4.4 01:43:18 10° NNE 01:48:08 81° ESE 01:52:26 13° S
Meteor 1-28 Rocket 3.5 01:45:10 10° SSE 01:48:40 62° ENE 01:52:10 10° N
Cosmos 2082 4.4 01:45:35 13° WSW 01:50:16 44° NW 01:55:40 10° NNE
IDEFIX/ARIANE 42P 2.8 01:45:46 10° N 01:50:56 59° WNW 01:55:13 15° SSW
Cosmos 2228 3.5 01:48:32 10° NNW 01:52:37 41° W 01:55:50 15° SSW
Cosmos 2227 Rocket 4.1 01:48:52 10° W 01:53:08 21° NW 01:57:25 10° N
Cosmos 1943 3.3 01:48:13 10° NW 01:53:41 54° WSW 01:59:07 10° S
CZ-2C R/B 3.1 01:50:34 10° NNE 01:56:05 85° WNW 02:00:50 12° SSW
CZ-2C R/B 2.9 01:51:20 11° S 01:56:12 51° W 02:01:28 10° NNW
Cosmos 1437 Rocket 2.6 01:53:28 15° SSW 01:56:36 86° W 02:00:25 10° N
CZ-2D R/B 2.2 01:53:42 10° N 01:59:03 71° WNW 02:03:47 13° SSW
FENGYUN 3A 3.7 01:55:59 10° NNE 02:01:23 84° ESE 02:06:47 10° SSW
Cosmos 1727 Rocket 4.2 01:58:23 10° NNW 02:04:36 61° W 02:10:49 10° S
CENTAUR R/B 3.8 02:00:51 10° W 02:06:34 38° NNW 02:13:33 10° NE
H-2A R/B 4.3 02:05:07 10° N 02:08:47 36° WNW 02:12:02 12° SW
Cosmos 2239 Rocket 4.5 02:02:41 10° S 02:08:50 85° W 02:15:02 10° N
Envisat 4.4 02:05:44 10° NNE 02:10:21 34° E 02:14:57 10° SSE
Cosmos 1048 Rocket 4.0 02:06:30 10° NNW 02:11:44 89° ENE 02:17:01 10° SSE
USA 238 DEB 3.7 02:06:34 12° SSW 02:12:18 74° SE 02:19:04 10° NE
USA 238 3.7 02:06:36 12° SSW 02:12:21 74° SE 02:19:07 10° NE
NPP 4.4 02:10:20 10° N 02:15:20 40° WNW 02:20:16 10° SW
ASTEX 1 3.4 02:15:45 10° S 02:20:35 68° W 02:25:27 10° N
Cosmos 1606 Rocket 3.7 02:18:17 10° NNW 02:22:40 56° W 02:26:58 10° S
Cosmos 1125 Rocket 4.2 02:18:08 10° S 02:23:13 51° ESE 02:28:21 10° NNE
Cosmos 1867 3.6 02:18:38 11° SW 02:23:57 86° SE 02:29:28 10° NE
CZ-2C R/B 4.1 02:20:39 10° NE 02:24:35 28° E 02:28:30 10° SSE
Cosmos 921 Rocket 3.2 02:21:00 10° NNW 02:25:07 50° WSW 02:29:09 10° S
ADEOS II 2.3 02:21:00 10° N 02:26:11 61° WNW 02:31:19 10° SSW
BREEZE-M DEB (TANK) 4.4 02:21:50 10° SSW 02:27:52 23° SSE 02:30:39 10° ESE
Alouette 2 Rocket 3.8 02:23:20 10° S 02:28:01 67° ESE 02:31:40 10° NNE
Cosmos 494 Rocket 4.3 02:23:33 10° NNW 02:28:35 49° WSW 02:33:37 10° S
Cosmos 1844 3.8 02:28:17 10° SSW 02:34:03 89° WNW 02:39:54 10° NNE
Cosmos 1238 Rocket 2.9 02:34:20 10° N 02:37:52 62° E 02:40:56 10° SSE
USA 81 4.1 02:32:56 10° N 02:38:14 82° W 02:43:30 10° S
Cosmos 1726 Rocket 3.8 02:33:56 10° NNW 02:38:15 51° W 02:42:31 10° S
Resurs 1-4 Rocket 3.1 02:34:07 10° N 02:38:47 33° WNW 02:43:27 10° SW
Cosmos-2242 4.5 02:37:04 10° N 02:41:10 41° ENE 02:45:14 10° SE
Cosmos 724 4.3 02:38:13 10° NW 02:44:00 71° WSW 02:49:49 10° SSE
Cosmos 2263 Rocket 4.0 02:42:57 10° W 02:47:02 20° NW 02:51:07 10° N
BREEZE M DEB (TANK) 3.9 02:46:42 10° WNW 02:58:47 83° SSW 03:02:26 10° ESE
